www.pogodaiklimat.ru

АРХИВ ПОГОДЫ в Харькове

Время (UTC), дата Ветер
(напр.,м/с)
 
Видим.   Явления Облачность Т
(С)
Тd
(С)
f
(%)
Тe
(С)
Тes
(С)
Комфортность P
(гПа)
Po
(гПа)
Тmin
(С)
Tmax
(С)
R
(мм)
S
(см)
15 18.07 ЮВ 9 10 км гроза, ливневой дождь 9/9 600 м
[Cb calv]
+24.6 +18.8 70 +29 +29 душно 998.5 981.1
18 18.07 СЗ 8
{18}
10 км в посл. час гроза {ливн. осадки} 8/6 600 м
[Cb calv Ac trans]
+24.0 +18.7 72 +29 +29 душно 1000.3 982.8 +37.4 4
21 18.07 С 2 10 км 9/4 1000 м
[Sc Ac trans]
+21.6 +17.4 77 +26 +26 душно 1000.9 983.3
00 19.07 В 3 10 км зарница {ливн. осадки} 8/5 600 м
[Cb calv Ac trans]
+20.5 +17.3 82 +24 +24 комфорт 999.6 981.9
03 19.07 С 3 10 км гроза, ливневой дождь 10/10 480 м
[Cb calv]
+19.1 +17.0 88 +21 +21 комфорт 1000.5 982.7
06 19.07 СВ 8 10 км гроза, ливневой дождь 9/8 600 м
[Cb calv Ac trans]
+18.2 +16.4 89 +18 +18 прохладно 999.6 981.8 +18.2 17
09 19.07 Ю 2 10 км {гроза, ливн. осадки} 9/4 600 м
[Cu med, cong Ac trans]
+21.4 +18.2 82 +26 +31 душно 1000.6 983.0
12 19.07 С 2 10 км слабый ливневой дождь {гроза} 9/6 600 м
[Cb calv Ac trans]
+20.2 +18.8 92 +24 +27 комфорт 1001.0 983.3
15 19.07 СВ 1 10 км гроза, ливневой дождь 9/8 600 м
[Cb calv Ac trans]
+19.0 +18.0 94 +22 +22 комфорт 1001.5 983.7
18 19.07 З 2 3700 м слабый ливневой дождь {гроза} 9/9 200 м
[Cb calv]
+19.0 +17.9 93 +21 +21 комфорт 1001.7 983.9 +21.5 22
21 19.07 З 3 10 км {ливн. осадки} 9/9 300 м
[Sc]
+18.2 +16.9 92 +19 +19 по сезону 1002.3 984.4
00 20.07 З 3 10 км в посл. час ливневой дождь 10/10 240 м
[Cb cap]
+16.8 +15.4 91 +17 +17 по сезону 1002.7 984.7
03 20.07 З 5 4500 м дымка {ливн. осадки} 10/10 120 м
[St]
+15.9 +14.7 93 +15 +15 холодно 1003.5 985.4
06 20.07 З 5 10 км {ливн. осадки, морось} 10/10 210 м
[Sc]
+15.8 +14.4 91 +15 +15 очень
холодно
1004.9 986.8 +15.6 3
09 20.07 З 5 10 км 10/10 600 м
[Sc]
+17.2 +12.9 76 +17 +17 очень
холодно
1005.9 987.9
12 20.07 З 5 10 км 9/5 1000 м
[Cu med, cong Ac trans]
+20.5 +12.8 61 +23 +24 комфорт 1006.5 988.7
15 20.07 З 4 10 км 8/5 1000 м
[Cu med, cong Ac trans]
+22.4 +12.2 52 +25 +25 комфорт 1007.0 989.3
18 20.07 Ю 3 10 км 5/3 1000 м
[Sc Ac trans]
+19.8 +14.1 70 +22 +22 комфорт 1008.2 990.3 +22.4
21 20.07 Ю 2 10 км ясно +16.4 +13.8 85 +17 +17 прохладно 1008.8 990.7
00 21.07 штиль 0 10 км 3/0
[Ci fib]
+15.0 +12.5 85 +15 +15 прохладно 1009.4 991.2
03 21.07 ЮВ 1 10 км 3/0
[Ci fib]
+14.8 +13.2 90 +15 +16 прохладно 1010.0 991.7
06 21.07 Ю 2 10 км 4/0
[Ac trans]
+20.1 +14.5 70 +23 +29 комфорт 1009.9 992.0 +12.7
09 21.07 ЮЗ 5 10 км 8/8 1000 м
[Cu med, cong]
+22.0 +11.5 51 +24 +26 комфорт 1009.3 991.5
12 21.07 ЮЗ 6 10 км 6/6 1000 м
[Cu med, cong]
+24.3 +8.8 37 +25 +27 комфорт 1009.1 991.4
15 21.07 ЮЗ 5 10 км 4/3 1000 м
[Cu med, cong Ci fib]
+23.9 +9.5 40 +25 +26 комфорт 1009.0 991.3
18 21.07 З 3 10 км 6/3 1000 м
[Sc diur, vesp Ci]
+19.8 +11.7 60 +22 +22 комфорт 1010.3 992.3 +25.3
21 21.07 СЗ 2 10 км 8/5 1000 м
[Sc Ac trans]
+16.7 +10.5 67 +17 +17 прохладно 1010.7 992.5
00 22.07 Ю 1 10 км {ливн. осадки} 9/5 1000 м
[Sc Ac trans]
+15.4 +12.3 82 +16 +16 по сезону 1010.3 992.1
03 22.07 В 3 10 км {ливн. осадки} 9/0
[Ac trans]
+15.1 +12.6 85 +14 +15 холодно 1009.2 991.0
06 22.07 ЮВ 5 10 км в посл. час ливневой дождь 10/8 600 м
[Cb cap Ac und]
+16.1 +13.1 82 +15 +15 холодно 1008.1 990.0 +14.6 0.3
09 22.07 Ю 3 10 км {ливн. осадки} 10/10 600 м
[Cb cap]
+18.2 +12.7 70 +19 +19 холодно 1007.4 989.4
12 22.07 Ю 1 10 км слабый ливневой дождь 9/9 600 м
[Cb cap]
+18.9 +14.4 75 +21 +23 комфорт 1007.1 989.2
15 22.07 СЗ 3 3800 м слабый ливневой дождь 10/10 540 м
[Cb cap]
+16.9 +15.0 89 +17 +17 очень
холодно
1007.3 989.2
18 22.07 З 3 10 км {ливн. осадки} 9/6 300 м
[Cb cap Ac trans]
+16.4 +14.7 90 +16 +16 холодно 1009.1 991.0 +20.4 3
21 22.07 З 3 10 км 9/6 1000 м
[Sc Ac trans]
+15.8 +13.7 87 +15 +15 холодно 1009.3 991.1
00 23.07 З 3 4000 м дымка 5/0
[Ac trans Ci fib]
+14.6 +13.0 90 +14 +14 прохладно 1009.4 991.1
03 23.07 З 2 5000 м дымка 8/0
[Ac trans Ci fib]
+14.5 +12.9 90 +14 +14 холодно 1008.5 990.3
06 23.07 З 3 10 км в посл. час ливневой дождь 9/8 300 м
[Cb cap Ac trans]
+16.8 +14.2 85 +17 +18 прохладно 1007.8 989.7 +14.2 0.0
09 23.07 З 7 10 км в посл. час ливневой дождь 9/6 600 м
[Cb cap Ac trans]
+20.5 +14.9 70 +23 +24 комфорт 1006.1 988.3
12 23.07 З 7 10 км слабый ливневой дождь 9/6 600 м
[Cb cap Ac trans]
+19.7 +14.6 72 +21 +22 комфорт 1006.0 988.1
15 23.07 З 5 10 км слабый ливневой дождь 9/9 600 м
[Cb cap]
+18.8 +16.3 85 +20 +20 холодно 1005.0 987.1
18 23.07 СЗ 5 10 км в посл. час ливневой дождь 9/9 480 м
[Cb cap]
+18.5 +15.8 84 +19 +19 прохладно 1004.8 986.9 +21.6 0.8
21 23.07 С 3 10 км 4/4 600 м
[Sc]
+17.0 +14.4 85 +17 +17 прохладно 1006.3 988.3
00 24.07 СЗ 4 10 км ясно +15.6 +13.5 87 +15 +15 прохладно 1007.3 989.1
03 24.07 СЗ 4 10 км 8/3 300 м
[St Ac trans]
+15.3 +13.7 90 +14 +14 холодно 1007.8 989.6
06 24.07 СЗ 4 10 км 9/8 400 м
[St Ac trans]
+19.0 +15.8 82 +20 +21 по сезону 1008.1 990.2 +15.0
09 24.07 С 5 10 км 8/5 600 м
[Cb calv Ac trans]
+21.2 +15.4 69 +24 +27 комфорт 1008.6 990.8
12 24.07 С 7 10 км {ливн. осадки} 6/6 600 м
[Cb calv]
+23.5 +13.8 54 +26 +27 жарко 1009.0 991.3
15 24.07 С 7 10 км 5/5 1000 м
[Cu med, cong]
+24.4 +12.2 46 +26 +26 жарко 1009.9 992.2
18 24.07 С 2 10 км 4/0
[Ac trans]
+20.8 +13.9 65 +24 +24 комфорт 1011.6 993.7 +25.0 0.0
21 24.07 СЗ 2 10 км ясно +18.7 +14.8 78 +20 +20 по сезону 1012.2 994.2
00 25.07 СЗ 2 10 км ясно +17.0 +14.9 87 +17 +17 по сезону 1012.6 994.4
03 25.07 С 3 10 км ясно +16.9 +15.4 91 +17 +17 прохладно 1013.5 995.3
06 25.07 С 5 10 км ясно +20.2 +15.7 75 +23 +27 комфорт 1014.3 996.3 +16.1
09 25.07 С 4 10 км 6/5 1000 м
[Cu med, cong Ci fib]
+24.4 +14.7 55 +27 +32 жарко 1013.7 996.0
12 25.07 СВ 5 10 км 8/8 600 м
[Cb cap]
+25.3 +14.8 52 +28 +29 жарко 1013.9 996.2

 

Местоположение метеостанции Харьков (Харьковская область, Украина): широта 49.97 долгота 36.13 высота над уровнем моря 155 м.

В архиве по умолчанию представлена погода в Харькове за последнюю неделю. Архивные данные за месяц целиком и за предыдущие месяцы, начиная с января 2011 года, Вы можете получить, выбрав интересующий диапазон дат из раскрывающегося списка и нажав кнопку "Ввод!".

Внимание! Время в таблицах - всемирное. Для получения местного времени необходимо прибавить поправку, которая в Харькове равна 2 ч.

Ветер - указаны скорость ветра в м/с - средняя за 10 мин, порывы в срок и между сроками (в фигурных скобках) и направление, откуда дует ветер: С - северный, СВ - северо-восточный, В - восточный, ЮВ - юго-восточный, Ю - южный, ЮЗ - юго-западный, З - западный, СЗ - северо-западный.
Видимость - горизонтальная дальность видимости в метрах или километрах. При видимости от 1 до 10 км при отсутствии осадков обычно наблюдается дымка, при ухудшении видимости до 1 км и менее - туман. В сухую погоду видимость может ухудшаться дымом, пылью или мглою.
Явления - указаны атмосферные явления, наблюдавшиеся в срок или в последний час перед сроком; фигурными скобками обозначены явления, наблюдавшиеся между сроками (за 1-3 часа до срока); квадратными скобками обозначены град или гололедные отложения с указанием их диаметра в мм.
Облачность - указаны через наклонную черту общая и нижняя облачность в баллах и высота нижней границы облаков в метрах; квадратными скобками обозначены формы облаков: Ci - перистые, Cs - перисто-слоистые, Cc - перисто-кучевые, Ac - высококучевые, As - высокослоистые, Sc - слоисто-кучевые, Ns - слоисто-дождевые, Cu - кучевые, Cb - кучево-дождевые. Подробнее классификацию облаков см. в Атласе облаков (PDF).
T - Температура воздуха - температура, измеренная на высоте 2 м над землей.
Td - Температура точки росы - температура, при понижении до которой содержащийся в воздухе водяной пар достигнет насыщения.
f - Относительная влажность воздуха - влажноcть воздуха, измеренная на высоте 2 м над землей.
Te - Эффективная температура - температура, которую ощущает одетый по сезону человек в тени. Характеристика душности погоды. При расчете учитывается влияние влажности воздуха и скорости ветра на теплоощущения человека.
Tes - Эффективная температура на солнце - температура, которую ощущает человек, с поправкой на солнечный нагрев. Характеристика знойности погоды. Зависит от высоты солнца над горизонтом, облачности и скорости ветра. Ночью, в пасмурную погоду, а также при ветре 12 м/с и более поправка равна нулю.
P - Атмосферное давление - приведенное к уровню моря атмосферное давление.
Po - Атмосферное давление - измеренное на уровне метеостанции атмосферное давление.
Tmin - Минимальная температура - минимум температуры воздуха на высоте 2 м над землей.
Tmax - Максимальная температура - максимум температуры воздуха на высоте 2 м над землей.
R - Количество осадков - Количество выпавших осадков, мм. При наведении курсора мыши на число - период времени, за который выпало указанное количество осадков.
S - Снежный покров - Высота снежного покрова, см. При наведении курсора мыши на число - состояние снежного покрова и степень покрытия местности в баллах.